Location: Az?znagar
(16.8373°N, 80.5091°E)
Time: 09:21:52
(UTC+00:00)

ATLAS 3B R/B - Pass Details

Date: 04 December 2021
Orbit: 994 x 1201 km, 63.8° (Epoch: 11 January)

Event Time Altitude Azimuth Distance (km) Brightness Sun altitude
Rises 00:08:25 0° 210° (SSW) 3,697 5.4 -10.7°
Reaches altitude 10° 00:11:00 10° 212° (SSW) 2,747 4.7 -10.1°
Maximum altitude 00:17:23 69° 295° (WNW) 1,065 2.5 -8.7°
Drops below altitude 10° 00:23:54 10° 18° (NNE) 2,808 4.9 -7.2°
Sets 00:26:35 0° 21° (NNE) 3,785 5.6 -6.6°
